• Join FlightAware (Why Join?)
  • Login
  • US Flag 
08:51PM EDT


 

Airport Tracker/Info


-or-


 

Live Flight TrackerFlight Track Log ✈ CTL18 ✈ 16-Jul-2013 ✈ KBKL - KPTK

Flight Track Log - Related Links

Times and Time Zones

All times are in EDT time to prevent confusion due to time zone crossing. See the CTL18 flight status page for this flight to view local times or setup timezone preferences in your user account.

Time Position Orientation Groundspeed Altitude Reporting Facility
EDT Latitude Longitude Course Direction KTS MPH feet Rate Location/Type
10:16PM 41.5311 -81.7147 300° West 127 146 1,700  Level Cleveland Center
10:17PM 41.5644 -81.7292 342° North 130 150 2,500 660 Climbing Cleveland Center
10:18PM 41.5911 -81.7658 314° West 148 170 3,100 540 Climbing Cleveland Center
10:19PM 41.6072 -81.8133 294° West 142 163 3,700 540 Climbing Cleveland Center
10:20PM 41.6233 -81.8636 293° West 142 163 4,200 540 Climbing Cleveland Center
10:21PM 41.6375 -81.9111 292° West 146 168 4,800 540 Climbing Cleveland Center
10:22PM 41.6556 -81.9644 294° West 145 167 5,400 480 Climbing Cleveland Center
10:23PM 41.6717 -82.0119 294° West 146 168 5,800 300 Climbing Cleveland Center
10:24PM 41.6900 -82.0597 297° West 150 173 6,100 120 Climbing Cleveland Center
10:25PM 41.7100 -82.1214 293° West 169 194 6,100  Level Cleveland Center
10:26PM 41.7300 -82.1775 296° West 166 191 6,100  Level Cleveland Center
10:27PM 41.7458 -82.2361 290° West 165 190 6,200  Climbing Cleveland Center
10:28PM 41.7617 -82.2953 290° West 166 191 6,200 -60 Level Cleveland Center
10:29PM 41.7756 -82.3344 295° West 166 191 6,100 -120 Descending Cleveland Center
10:31PM 41.7972 -82.4242 288° West 169 194 6,000  Descending Cleveland Center
10:32PM 41.8128 -82.4858 289° West 168 193 6,100  Climbing Cleveland Center
10:32PM 41.8264 -82.5392 289° West 167 192 6,000 -60 Descending Cleveland Center
10:33PM 41.8486 -82.5931 299° West 168 193 6,000  Level Cleveland Center
10:35PM 41.9022 -82.6281 334° Northwest 164 189 6,000  Level Cleveland Center
10:36PM 41.9308 -82.6569 323° Northwest 163 188 6,100 60 Climbing Cleveland Center
10:36PM 41.9594 -82.6803 329° Northwest 164 189 6,100 -60 Level Cleveland Center
10:37PM 42.0047 -82.7181 328° Northwest 167 192 6,000 -60 Descending Cleveland Center
10:38PM 42.0436 -82.7500 329° Northwest 169 194 6,000  Level Cleveland Center
10:39PM 42.0847 -82.7822 330° Northwest 168 193 6,000  Level Cleveland Center
10:40PM 42.1258 -82.8172 328° Northwest 168 193 6,100  Climbing Cleveland Center
10:41PM 42.1586 -82.8436 329° Northwest 169 194 6,000 -60 Descending Cleveland Center
10:42PM 42.2039 -82.8817 328° Northwest 168 193 6,000  Level Cleveland Center
10:43PM 42.2344 -82.9053 330° Northwest 169 194 6,100  Climbing Cleveland Center
10:44PM 42.2797 -82.9433 328° Northwest 171 197 6,100  Level Cleveland Center
10:45PM 42.3247 -82.9789 330° Northwest 171 197 6,100 -240 Level Cleveland Center
10:46PM 42.3658 -83.0142 328° Northwest 177 204 5,700 -660 Descending Cleveland Center
10:47PM 42.4025 -83.0492 325° Northwest 195 224 5,000 -720 Descending Cleveland Center
10:48PM 42.4456 -83.0875 327° Northwest 184 212 4,400 -600 Descending Cleveland Center
10:49PM 42.4903 -83.1342 322° Northwest 171 197 3,800 -600 Descending Cleveland Center
10:50PM 42.5247 -83.1836 313° West 173 199 3,200 -480 Descending Cleveland Center
10:51PM 42.5569 -83.2272 315° West 163 188 2,900 -360 Descending Cleveland Center
10:52PM 42.5872 -83.2736 312° West 162 186 2,500 -420 Descending Cleveland Center
10:53PM 42.6175 -83.3144 315° West 159 183 2,100 -300 Descending Cleveland Center
10:54PM 42.6456 -83.3581 311° West 144 166 1,900 -420 Descending Cleveland Center
10:55PM 42.6636 -83.3897 308° West 110 127 1,400 -600 Descending Cleveland Center
10:57PM 42.6500 -83.4167 304° West  Level FlightAware Approximate
11:04PM 42.6656 -83.4205 304° West  Level Estimated
11:05PM 42.6656 -83.4205 304° West  Level Estimated